N9EX Weather Reports


time (UTC)temp
F
wind
direction
speed
knots
gust
knots
rain 1hr
in
rain 24hr
in
rain mn
in
humidity
%
barometer
mb
20260505004620 79 253 3.5 8.7 0.00 0.00 0.00 36 1010.1
20260505004057 79 261 4.3 8.7 0.00 0.00 0.00 37 1010.0
20260505003557 79 240 2.6 9.6 0.00 0.00 0.00 41 1010.2
20260505003101 79 284 4.3 9.6 0.00 0.00 0.00 36 1010.2
20260505002555 79 239 5.2 9.6 0.00 0.00 0.00 37 1010.0
20260505002055 79 211 5.2 9.6 0.00 0.00 0.00 36 1010.0
20260505001557 79 234 2.6 8.7 0.00 0.00 0.00 36 1010.2
20260505001054 79 196 3.5 8.7 0.00 0.00 0.00 36 1010.2
20260505000555 79 296 4.3 9.6 0.00 0.00 0.00 35 1010.2
20260505000112 79 254 2.6 10.4 0.00 0.00 0.00 40 1010.1
20260504235555 79 267 6.1 10.4 0.00 0.00 0.00 35 1010.1
20260504235055 79 255 3.5 10.4 0.00 0.00 0.00 35 1010.2
20260504234558 79 268 6.1 10.4 0.00 0.00 0.00 33 1010.2
20260504234055 80 307 4.3 7.8 0.00 0.00 0.00 34 1010.2
20260504233555 80 333 2.6 9.6 0.00 0.00 0.00 33 1010.3
20260504233059 80 346 2.6 9.6 0.00 0.00 0.00 33 1010.3
20260504232556 80 267 5.2 9.6 0.00 0.00 0.00 32 1010.3
20260504232055 80 213 6.1 9.6 0.00 0.00 0.00 32 1010.4
20260504231622 80 242 2.6 7.8 0.00 0.00 0.00 32 1010.4
20260504231055 80 201 1.7 8.7 0.00 0.00 0.00 34 1010.4
20260504230555 80 171 3.5 8.7 0.00 0.00 0.00 32 1010.4
20260504230056 80 214 3.5 9.6 0.00 0.00 0.00 33 1010.4
20260504225558 80 273 4.3 9.6 0.00 0.00 0.00 34 1010.4
20260504225057 80 250 4.3 9.6 0.00 0.00 0.00 34 1010.5
20260504224615 80 296 4.3 9.6 0.00 0.00 0.00 35 1010.4
20260504224056 80 198 4.3 9.6 0.00 0.00 0.00 35 1010.5
20260504223555 80 210 5.2 10.4 0.00 0.00 0.00 33 1010.4
20260504223101 80 287 5.2 10.4 0.00 0.00 0.00 34 1010.4
20260504222556 80 224 3.5 10.4 0.00 0.00 0.00 36 1010.6
20260504222054 80 257 5.2 10.4 0.00 0.00 0.00 34 1010.6
20260504221647 80 248 4.3 9.6 0.00 0.00 0.00 38 1010.7
20260504221055 80 294 4.3 9.6 0.00 0.00 0.00 31 1010.6
20260504220555 80 355 1.7 9.6 0.00 0.00 0.00 32 1010.8
20260504220058 80 209 2.6 9.6 0.00 0.00 0.00 29 1010.9
20260504215555 80 200 4.3 9.6 0.00 0.00 0.00 30 1010.8
20260504215056 80 257 0.9 8.7 0.00 0.00 0.00 33 1011.0
20260504214556 80 241 2.6 8.7 0.00 0.00 0.00 39 1011.0
20260504214055 79 266 3.5 8.7 0.00 0.00 0.00 40 1011.0
20260504213555 79 238 2.6 9.6 0.00 0.00 0.00 33 1011.0
20260504213103 79 312 4.3 9.6 0.00 0.00 0.00 34 1011.1
20260504212556 80 236 2.6 7.0 0.00 0.00 0.00 33 1011.1
20260504212056 79 190 0.0 9.6 0.00 0.00 0.00 35 1011.1
20260504211607 78 182 2.6 9.6 0.00 0.00 0.00 35 1011.1
20260504211057 79 334 2.6 7.0 0.00 0.00 0.00 34 1011.2
20260504210556 78 0 1.7 7.0 0.00 0.00 0.00 41 1011.2
20260504210055 79 267 1.7 7.8 0.00 0.00 0.00 34 1011.2
20260504205558 77 338 2.6 8.7 0.00 0.00 0.00 35 1011.4
20260504205055 77 198 3.5 8.7 0.00 0.00 0.00 35 1011.3
20260504204558 77 211 3.5 8.7 0.00 0.00 0.00 35 1011.2
20260504204055 78 193 3.5 8.7 0.00 0.00 0.00 36 1011.2
20260504203558 78 214 2.6 8.7 0.00 0.00 0.00 38 1011.4
20260504203057 78 296 1.7 6.1 0.00 0.00 0.00 40 1011.4
20260504202554 77 251 2.6 6.1 0.00 0.00 0.00 39 1011.4
20260504202055 77 247 2.6 6.1 0.00 0.00 0.00 40 1011.3
20260504201556 76 229 1.7 6.1 0.00 0.00 0.00 38 1011.4
20260504201055 76 274 3.5 6.1 0.00 0.00 0.00 41 1011.5
20260504200556 76 261 1.7 7.0 0.00 0.00 0.00 40 1011.6
20260504200056 76 211 0.0 7.0 0.00 0.00 0.00 47 1011.6
20260504195555 75 269 1.7 7.0 0.00 0.00 0.00 41 1011.7
20260504195057 75 210 2.6 7.8 0.00 0.00 0.00 40 1011.6
20260504194601 75 244 3.5 7.8 0.00 0.00 0.00 42 1011.6
20260504194056 75 252 2.6 7.0 0.00 0.00 0.00 42 1011.6
20260504193555 76 194 3.5 7.8 0.00 0.00 0.00 40 1011.6
20260504193056 75 264 3.5 9.6 0.00 0.00 0.00 42 1011.6
20260504192555 75 240 4.3 9.6 0.00 0.00 0.00 44 1011.6
20260504192055 75 207 2.6 8.7 0.00 0.00 0.00 44 1011.5
20260504191615 74 252 4.3 8.7 0.00 0.00 0.00 46 1011.6
20260504191056 74 265 4.3 7.0 0.00 0.00 0.00 45 1011.6
20260504190555 75 221 2.6 8.7 0.00 0.00 0.00 44 1011.6
20260504185555 74 0 2.6 5.2 0.00 0.00 0.00 46 1011.6
20260504185055 74 204 1.7 7.8 0.00 0.00 0.00 52 1011.7
20260504184602 74 302 3.5 7.8 0.00 0.00 0.00 46 1011.7
20260504184056 73 227 2.6 5.2 0.00 0.00 0.00 47 1011.7
20260504183556 73 266 1.7 7.0 0.00 0.00 0.00 46 1011.7
20260504183056 73 242 2.6 7.0 0.00 0.00 0.00 45 1011.8
20260504182557 73 274 0.9 6.1 0.00 0.00 0.00 46 1011.8
20260504182054 73 234 1.7 5.2 0.00 0.00 0.00 45 1011.9
20260504181559 73 243 0.0 6.1 0.00 0.00 0.00 51 1011.7
20260504181056 73 213 0.9 7.0 0.00 0.00 0.00 45 1011.8
20260504180556 72 267 3.5 7.0 0.00 0.00 0.00 46 1011.8
20260504180056 71 239 3.5 6.1 0.00 0.00 0.00 45 1011.7
20260504175555 71 211 3.5 6.1 0.00 0.00 0.00 48 1011.7
20260504175055 70 240 3.5 6.1 0.00 0.00 0.00 48 1011.7
20260504174555 70 229 2.6 8.7 0.00 0.00 0.00 48 1011.6
20260504174055 70 232 4.3 8.7 0.00 0.00 0.00 56 1011.7
20260504173558 70 232 1.7 7.8 0.00 0.00 0.00 53 1011.6
20260504173055 70 242 3.5 7.8 0.00 0.00 0.00 52 1011.7
20260504172556 70 259 2.6 7.0 0.00 0.00 0.00 54 1011.7
20260504172101 69 205 3.5 6.1 0.00 0.00 0.00 56 1011.8
20260504171552 69 234 3.5 6.1 0.00 0.00 0.00 56 1011.7
20260504171055 69 263 3.5 7.0 0.00 0.00 0.00 56 1011.7
20260504170554 69 229 1.7 7.0 0.00 0.00 0.00 55 1011.8
20260504151055 59 0 0.0 0.0 0.00 0.00 0.00 75 1011.5
20260504150556 58 0 0.0 0.0 0.00 0.00 0.00 77 1011.5
20260504141056 51 0 0.0 0.0 0.00 0.00 0.00 90 1010.9
20260504140558 50 0 0.0 0.0 0.00 0.00 0.00 89 1011.1
20260504140104 49 0 0.0 0.0 0.00 0.00 0.00 89 1011.0
20260504130552 48 0 0.0 0.0 0.00 0.00 0.00 89 1010.7
20260504110555 49 0 0.0 0.0 0.00 0.00 0.00 87 1010.6
20260504100555 50 0 0.0 0.0 0.00 0.00 0.00 87 1010.6
20260504081557 52 0 0.0 0.0 0.00 0.00 0.00 84 1010.5
20260504081055 52 0 0.0 0.0 0.00 0.00 0.00 84 1010.5
20260504080554 52 0 0.0 0.0 0.00 0.00 0.00 84 1010.6
20260504060106 57 0 0.0 0.0 0.00 0.00 0.00 76 1010.6
20260504050556 60 0 0.0 0.0 0.00 0.00 0.00 69 1010.6
20260504045556 61 0 0.0 0.0 0.00 0.00 0.00 68 1010.7
20260504045057 61 0 0.0 1.7 0.00 0.00 0.00 67 1010.6
20260504044557 61 0 0.0 1.7 0.00 0.00 0.00 66 1010.6
20260504044057 62 317 0.9 1.7 0.00 0.00 0.00 71 1010.5
20260504043600 62 0 0.0 0.0 0.00 0.00 0.00 62 1010.4
20260504043104 63 0 0.0 0.0 0.00 0.00 0.00 61 1010.5
20260504042556 64 0 0.0 0.0 0.00 0.00 0.00 60 1010.5
20260504042057 64 0 0.0 0.0 0.00 0.00 0.00 58 1010.4
20260504041600 65 0 0.0 0.0 0.00 0.00 0.00 57 1010.5
20260504041054 65 0 0.0 0.0 0.00 0.00 0.00 56 1010.4
20260504040556 66 0 0.0 0.0 0.00 0.00 0.00 55 1010.4
20260504040059 66 0 0.0 0.0 0.00 0.00 0.00 53 1010.3
20260504035555 67 0 0.0 0.0 0.00 0.00 0.00 52 1010.2
20260504035058 68 0 0.0 0.0 0.00 0.00 0.00 50 1010.2
20260504034616 68 0 0.0 0.0 0.00 0.00 0.00 47 1010.2
20260504034056 69 0 0.0 0.0 0.00 0.00 0.00 46 1010.1
20260504033558 70 0 0.0 0.0 0.00 0.00 0.00 43 1010.1
20260504033101 71 0 0.0 0.0 0.00 0.00 0.00 42 1010.0
20260504032556 72 0 0.0 0.0 0.00 0.00 0.00 40 1009.9
20260504032056 72 0 0.0 2.6 0.00 0.00 0.00 40 1010.0
20260504031611 73 0 0.9 7.8 0.00 0.00 0.00 38 1010.1
20260504031055 73 0 0.9 7.8 0.00 0.00 0.00 38 1010.1
20260504030556 73 281 1.7 7.8 0.00 0.00 0.00 38 1010.1
20260504030115 73 255 2.6 6.1 0.00 0.00 0.00 37 1010.1
20260504025555 74 273 1.7 5.2 0.00 0.00 0.00 37 1010.1
20260504025057 75 327 1.7 3.5 0.00 0.00 0.00 37 1010.2
20260504024558 75 355 1.7 3.5 0.00 0.00 0.00 37 1010.1
20260504024056 76 317 0.9 5.2 0.00 0.00 0.00 36 1010.0
20260504023554 76 322 1.7 5.2 0.00 0.00 0.00 35 1010.1
20260504023058 76 325 0.9 5.2 0.00 0.00 0.00 35 1010.1
20260504022554 77 331 0.9 7.8 0.00 0.00 0.00 35 1010.1
20260504022056 77 334 3.5 7.8 0.00 0.00 0.00 40 1010.1
20260504021607 78 331 2.6 6.1 0.00 0.00 0.00 37 1010.2
20260504021056 78 342 0.9 3.5 0.00 0.00 0.00 38 1010.2
20260504020556 79 323 0.9 4.3 0.00 0.00 0.00 38 1010.1
20260504020055 79 337 0.0 6.1 0.00 0.00 0.00 39 1010.1
20260504015556 79 324 2.6 6.1 0.00 0.00 0.00 37 1010.1
20260504015056 79 327 2.6 5.2 0.00 0.00 0.00 44 1010.2
20260504014557 79 273 1.7 7.8 0.00 0.00 0.00 45 1010.1
20260504014056 78 336 2.6 7.8 0.00 0.00 0.00 40 1010.2
20260504013556 79 335 1.7 8.7 0.00 0.00 0.00 40 1010.2
20260504013059 79 305 3.5 8.7 0.00 0.00 0.00 40 1010.2
20260504012557 79 346 2.6 7.8 0.00 0.00 0.00 40 1010.2
20260504012053 79 327 2.6 7.8 0.00 0.00 0.00 40 1010.2
20260504011552 79 271 3.5 7.8 0.00 0.00 0.00 40 1010.4
20260504011052 79 331 3.5 8.7 0.00 0.00 0.00 40 1010.4
20260504010552 79 294 4.3 10.4 0.00 0.00 0.00 40 1010.5
20260504010054 80 333 3.5 11.3 0.00 0.00 0.00 40 1010.5
20260504005554 80 336 5.2 11.3 0.00 0.00 0.00 39 1010.6
20260504005052 80 225 4.3 7.8 0.00 0.00 0.00 41 1010.6